DTA55T FPST-GGOV

Flight info

Callsign DTA55T
Flight time N/A
Altitude 36000
Route GAPAK UA400 AD UB729 GIA UB600 GULAV GULAV1S
Aircraft B738/M-SDE2E3FGHIRWXY/LB1

Departure

Time N/A
Airport São Tomé International Airport (FPST)

Arrival

Time 2026-04-28 16:22
Airport Osvaldo Vieira International Airport (GGOV)
Time Latitude Longitude Altitude Speed Heading
2026-04-28 12:56 0.65894 6.11042 16804 ft 395 kts 297°
2026-04-28 12:56 0.67063 6.08552 17453 ft 397 kts 297°
2026-04-28 12:56 0.68239 6.06046 17992 ft 400 kts 297°
2026-04-28 12:57 0.69425 6.03520 18409 ft 403 kts 297°
2026-04-28 12:57 0.70622 6.00966 18822 ft 406 kts 297°
2026-04-28 12:57 0.71821 5.98410 19253 ft 408 kts 297°
2026-04-28 12:57 0.73028 5.95836 19678 ft 410 kts 297°
2026-04-28 12:58 0.74225 5.93284 20083 ft 412 kts 297°
2026-04-28 12:58 0.75444 5.90685 20546 ft 414 kts 297°
2026-04-28 12:58 0.76670 5.88070 20937 ft 417 kts 296°
2026-04-28 12:58 0.77906 5.85437 21308 ft 420 kts 296°
2026-04-28 12:59 0.79146 5.82793 21702 ft 422 kts 296°
2026-04-28 12:59 0.80393 5.80133 22088 ft 424 kts 296°
2026-04-28 12:59 0.81646 5.77463 22470 ft 426 kts 296°
2026-04-28 12:59 0.82907 5.74773 22834 ft 428 kts 296°
2026-04-28 13:00 0.84173 5.72075 23196 ft 430 kts 296°
2026-04-28 13:00 0.85445 5.69362 23571 ft 432 kts 296°
2026-04-28 13:00 0.86721 5.66641 23892 ft 433 kts 296°
2026-04-28 13:00 0.87999 5.63916 24198 ft 434 kts 296°
2026-04-28 13:01 0.89284 5.61176 24506 ft 437 kts 296°
2026-04-28 13:01 0.90576 5.58418 24811 ft 438 kts 296°
2026-04-28 13:01 0.91870 5.55658 25105 ft 439 kts 296°
2026-04-28 13:01 0.93169 5.52888 25382 ft 441 kts 296°
2026-04-28 13:02 0.94473 5.50108 25659 ft 443 kts 296°
2026-04-28 13:02 0.95779 5.47316 25923 ft 444 kts 296°
2026-04-28 13:02 0.97088 5.44514 26185 ft 446 kts 296°
2026-04-28 13:02 0.98399 5.41704 26454 ft 447 kts 296°
2026-04-28 13:03 0.99716 5.38881 26718 ft 449 kts 296°
2026-04-28 13:03 1.01036 5.36052 26973 ft 450 kts 296°
2026-04-28 13:03 1.02363 5.33207 27221 ft 452 kts 295°
2026-04-28 13:03 1.03692 5.30359 27558 ft 451 kts 295°
2026-04-28 13:04 1.05001 5.27552 27866 ft 451 kts 295°
2026-04-28 13:04 1.06331 5.24702 28097 ft 453 kts 295°
2026-04-28 13:04 1.07667 5.21839 28302 ft 456 kts 295°
2026-04-28 13:04 1.09012 5.18957 28499 ft 458 kts 295°
2026-04-28 13:05 1.10359 5.16070 28777 ft 458 kts 295°
2026-04-28 13:05 1.11705 5.13184 29036 ft 459 kts 295°
2026-04-28 13:05 1.13055 5.10290 29237 ft 461 kts 295°
2026-04-28 13:05 1.14412 5.07382 29451 ft 462 kts 295°
2026-04-28 13:06 1.15776 5.04459 29569 ft 466 kts 295°
2026-04-28 13:06 1.17130 5.01556 29809 ft 466 kts 296°
2026-04-28 13:06 1.18500 4.98620 30036 ft 467 kts 295°
2026-04-28 13:06 1.19872 4.95678 30221 ft 467 kts 295°
2026-04-28 13:07 1.21247 4.92731 30365 ft 469 kts 296°
2026-04-28 13:07 1.22628 4.89770 30551 ft 470 kts 296°
2026-04-28 13:07 1.24007 4.86814 30815 ft 469 kts 296°
2026-04-28 13:07 1.25382 4.83864 31095 ft 467 kts 296°
2026-04-28 13:08 1.26756 4.80920 31332 ft 467 kts 296°
2026-04-28 13:08 1.28129 4.77975 31554 ft 467 kts 296°
2026-04-28 13:08 1.29502 4.75032 31784 ft 467 kts 296°
2026-04-28 13:08 1.30872 4.72093 32033 ft 466 kts 296°
2026-04-28 13:09 1.32241 4.69157 32284 ft 466 kts 296°
2026-04-28 13:09 1.33608 4.66225 32520 ft 466 kts 296°
2026-04-28 13:09 1.34961 4.63324 32746 ft 465 kts 296°
2026-04-28 13:09 1.36328 4.60394 32989 ft 465 kts 296°
2026-04-28 13:10 1.37692 4.57467 33237 ft 465 kts 296°
2026-04-28 13:10 1.39057 4.54539 33465 ft 464 kts 296°
2026-04-28 13:10 1.40422 4.51613 33691 ft 464 kts 296°
2026-04-28 13:10 1.41786 4.48687 33923 ft 464 kts 296°
2026-04-28 13:11 1.43147 4.45766 34134 ft 463 kts 296°
2026-04-28 13:11 1.44506 4.42851 34324 ft 463 kts 296°
2026-04-28 13:11 1.45869 4.39928 34504 ft 463 kts 296°
2026-04-28 13:11 1.47230 4.37008 34704 ft 463 kts 296°
2026-04-28 13:12 1.48589 4.34093 34898 ft 463 kts 296°
2026-04-28 13:12 1.49948 4.31176 35088 ft 462 kts 296°
2026-04-28 13:12 1.51306 4.28263 35265 ft 462 kts 296°
2026-04-28 13:12 1.52663 4.25352 35450 ft 462 kts 296°
2026-04-28 13:13 1.54021 4.22438 35582 ft 463 kts 296°
2026-04-28 13:13 1.55383 4.19516 35723 ft 464 kts 296°
2026-04-28 13:13 1.56742 4.16599 35934 ft 462 kts 297°
2026-04-28 13:14 1.59467 4.10751 35991 ft 465 kts 297°
2026-04-28 13:14 1.62189 4.04909 35985 ft 462 kts 297°
2026-04-28 13:15 1.64872 3.99149 35996 ft 459 kts 297°
2026-04-28 13:15 1.67574 3.93349 35997 ft 456 kts 297°
2026-04-28 13:16 1.70233 3.87639 35993 ft 455 kts 297°
2026-04-28 13:16 1.72906 3.81903 35999 ft 456 kts 297°
2026-04-28 13:17 1.75584 3.76152 36003 ft 456 kts 297°
2026-04-28 13:17 1.78269 3.70388 35995 ft 458 kts 297°
2026-04-28 13:18 1.80961 3.64607 35999 ft 459 kts 297°
2026-04-28 13:18 1.83660 3.58810 35995 ft 461 kts 297°
2026-04-28 13:19 1.86368 3.52992 35996 ft 462 kts 297°
2026-04-28 13:19 1.89081 3.47163 35994 ft 463 kts 297°
2026-04-28 13:20 1.91795 3.41332 35995 ft 463 kts 296°
2026-04-28 13:20 1.94496 3.35528 35995 ft 463 kts 296°
2026-04-28 13:21 1.97211 3.29694 35995 ft 463 kts 296°
2026-04-28 13:21 1.99924 3.23862 35993 ft 462 kts 296°
2026-04-28 13:22 2.02633 3.18040 35992 ft 461 kts 296°
2026-04-28 13:22 2.05335 3.12232 35992 ft 460 kts 296°
2026-04-28 13:23 2.08032 3.06433 35995 ft 460 kts 296°
2026-04-28 13:23 2.10725 3.00644 35988 ft 459 kts 297°
2026-04-28 13:24 2.13395 2.94901 35996 ft 458 kts 297°
2026-04-28 13:24 2.16081 2.89126 35991 ft 458 kts 297°
2026-04-28 13:25 2.18765 2.83352 35998 ft 458 kts 297°
2026-04-28 13:25 2.21448 2.77580 35992 ft 458 kts 297°
2026-04-28 13:26 2.24133 2.71804 35997 ft 458 kts 297°
2026-04-28 13:26 2.26818 2.66029 35992 ft 458 kts 296°
2026-04-28 13:27 2.29504 2.60248 35993 ft 458 kts 296°
2026-04-28 13:27 2.32190 2.54468 35993 ft 458 kts 296°
2026-04-28 13:28 2.34421 2.49664 35996 ft 458 kts 296°
2026-04-28 13:28 2.37109 2.43879 35993 ft 458 kts 296°
2026-04-28 13:29 2.39792 2.38101 35994 ft 458 kts 296°
2026-04-28 13:29 2.42474 2.32326 35996 ft 458 kts 296°
2026-04-28 13:30 2.45157 2.26550 35993 ft 458 kts 296°
2026-04-28 13:30 2.47836 2.20779 35995 ft 458 kts 296°
2026-04-28 13:31 2.51859 2.12112 35998 ft 458 kts 296°
2026-04-28 13:31 2.54540 2.06337 35991 ft 458 kts 296°
2026-04-28 13:32 2.57207 2.00589 35992 ft 458 kts 296°
2026-04-28 13:32 2.59909 1.94767 35999 ft 459 kts 296°
2026-04-28 13:33 2.62594 1.88978 35991 ft 459 kts 296°
2026-04-28 13:33 2.65286 1.83176 36004 ft 460 kts 296°
2026-04-28 13:34 2.67959 1.77412 36003 ft 460 kts 296°
2026-04-28 13:34 2.70654 1.71600 36001 ft 461 kts 295°
2026-04-28 13:35 2.73351 1.65784 35994 ft 461 kts 296°
2026-04-28 13:35 2.76049 1.59966 35997 ft 461 kts 296°
2026-04-28 13:36 2.78752 1.54135 36002 ft 461 kts 296°
2026-04-28 13:36 2.81450 1.48313 35999 ft 462 kts 295°
2026-04-28 13:37 2.84149 1.42488 36002 ft 461 kts 295°
2026-04-28 13:37 2.86850 1.36656 35996 ft 462 kts 295°
2026-04-28 13:38 2.89553 1.30824 36003 ft 461 kts 295°
2026-04-28 13:38 2.92251 1.24998 35991 ft 462 kts 296°
2026-04-28 13:39 2.94950 1.19170 36008 ft 462 kts 295°
2026-04-28 13:39 2.97648 1.13344 36011 ft 461 kts 295°
2026-04-28 13:40 3.00345 1.07520 36012 ft 461 kts 295°
2026-04-28 13:40 3.03039 1.01697 36009 ft 461 kts 295°
2026-04-28 13:41 3.05731 0.95881 36007 ft 460 kts 295°
2026-04-28 13:41 3.08415 0.90079 36015 ft 459 kts 295°
2026-04-28 13:42 3.11094 0.84288 36011 ft 458 kts 295°
2026-04-28 13:42 3.13770 0.78505 36010 ft 457 kts 295°
2026-04-28 13:43 3.16438 0.72735 36013 ft 456 kts 295°
2026-04-28 13:43 3.19102 0.66975 36017 ft 456 kts 295°
2026-04-28 13:44 3.21761 0.61222 36013 ft 455 kts 295°
2026-04-28 13:44 3.24416 0.55478 36017 ft 455 kts 295°
2026-04-28 13:45 3.27070 0.49735 36019 ft 455 kts 295°
2026-04-28 13:45 3.29724 0.43992 36020 ft 455 kts 295°
2026-04-28 13:46 3.32361 0.38285 36016 ft 455 kts 295°
2026-04-28 13:46 3.35017 0.32532 36014 ft 456 kts 296°
2026-04-28 13:47 3.37679 0.26770 36020 ft 457 kts 295°
2026-04-28 13:47 3.40346 0.20996 36021 ft 458 kts 296°
2026-04-28 13:48 3.43022 0.15200 36017 ft 459 kts 296°
2026-04-28 13:48 3.45699 0.09398 36015 ft 460 kts 296°
2026-04-28 13:49 3.48385 0.03580 36015 ft 460 kts 295°
2026-04-28 13:49 3.51071 -0.02241 36030 ft 461 kts 296°
2026-04-28 13:50 3.53761 -0.08074 36020 ft 461 kts 295°
2026-04-28 13:50 3.56453 -0.13912 36018 ft 461 kts 295°
2026-04-28 13:51 3.59141 -0.19739 36014 ft 461 kts 296°
2026-04-28 13:51 3.61826 -0.25562 36018 ft 460 kts 295°
2026-04-28 13:52 3.64506 -0.31378 36020 ft 460 kts 296°
2026-04-28 13:52 3.67168 -0.37154 36024 ft 459 kts 295°
2026-04-28 13:53 3.69845 -0.42963 36023 ft 459 kts 296°
2026-04-28 13:53 3.72516 -0.48762 36023 ft 458 kts 295°
2026-04-28 13:54 3.75186 -0.54559 36014 ft 458 kts 295°
2026-04-28 13:54 3.77852 -0.60348 36018 ft 458 kts 296°
2026-04-28 13:55 3.80516 -0.66135 36034 ft 457 kts 296°
2026-04-28 13:55 3.83180 -0.71922 36029 ft 457 kts 296°
2026-04-28 13:56 3.85836 -0.77695 36023 ft 456 kts 296°
2026-04-28 13:56 3.88486 -0.83454 36022 ft 455 kts 296°
2026-04-28 13:57 3.91128 -0.89198 36017 ft 453 kts 296°
2026-04-28 13:57 3.93763 -0.94928 36020 ft 452 kts 296°
2026-04-28 13:58 3.96386 -1.00635 36023 ft 451 kts 296°
2026-04-28 13:58 3.98990 -1.06299 36025 ft 450 kts 296°
2026-04-28 13:59 4.01582 -1.11994 36022 ft 449 kts 295°
2026-04-28 13:59 4.04124 -1.17712 36022 ft 449 kts 295°
2026-04-28 14:00 4.06659 -1.23429 36034 ft 449 kts 295°
2026-04-28 14:00 4.09202 -1.29145 36031 ft 449 kts 295°
2026-04-28 14:01 4.11752 -1.34872 36025 ft 450 kts 295°
2026-04-28 14:01 4.14304 -1.40603 36022 ft 451 kts 295°
2026-04-28 14:02 4.16858 -1.46342 36027 ft 451 kts 295°
2026-04-28 14:02 4.19417 -1.52093 36017 ft 452 kts 295°
2026-04-28 14:03 4.21979 -1.57853 36027 ft 453 kts 295°
2026-04-28 14:03 4.24545 -1.63624 36025 ft 454 kts 295°
2026-04-28 14:04 4.27107 -1.69414 36033 ft 455 kts 295°
2026-04-28 14:04 4.29658 -1.75222 36026 ft 456 kts 295°
2026-04-28 14:05 4.32213 -1.81039 36028 ft 456 kts 295°
2026-04-28 14:05 4.34771 -1.86862 36025 ft 457 kts 295°
2026-04-28 14:06 4.37331 -1.92685 36022 ft 457 kts 294°
2026-04-28 14:06 4.39896 -1.98516 36028 ft 457 kts 294°
2026-04-28 14:07 4.42532 -2.04324 36031 ft 458 kts 295°
2026-04-28 14:07 4.45179 -2.10087 36023 ft 459 kts 295°
2026-04-28 14:08 4.47847 -2.15918 36034 ft 460 kts 295°
2026-04-28 14:08 4.50060 -2.20769 36022 ft 461 kts 295°
2026-04-28 14:09 4.53174 -2.27604 36024 ft 461 kts 295°
2026-04-28 14:09 4.55841 -2.33459 36028 ft 462 kts 295°
2026-04-28 14:10 4.58508 -2.39316 36028 ft 462 kts 295°
2026-04-28 14:10 4.61172 -2.45166 36033 ft 461 kts 295°
2026-04-28 14:11 4.63836 -2.51020 36028 ft 461 kts 295°
2026-04-28 14:11 4.66480 -2.56829 36033 ft 461 kts 295°
2026-04-28 14:12 4.69139 -2.62676 36039 ft 461 kts 295°
2026-04-28 14:12 4.71796 -2.68517 36036 ft 460 kts 295°
2026-04-28 14:13 4.74452 -2.74357 36030 ft 460 kts 295°
2026-04-28 14:13 4.76658 -2.79212 36032 ft 460 kts 295°
2026-04-28 14:14 4.79317 -2.85063 36035 ft 461 kts 295°
2026-04-28 14:14 4.81975 -2.90914 36035 ft 461 kts 295°
2026-04-28 14:15 4.84636 -2.96772 36037 ft 462 kts 295°
2026-04-28 14:15 4.87306 -3.02636 36035 ft 462 kts 295°
2026-04-28 14:16 4.90008 -3.08489 36039 ft 462 kts 295°
2026-04-28 14:16 4.92715 -3.14346 36038 ft 462 kts 295°
2026-04-28 14:17 4.95415 -3.20198 36036 ft 462 kts 295°
2026-04-28 14:17 4.98108 -3.26043 36025 ft 461 kts 295°
2026-04-28 14:18 5.00796 -3.31880 36037 ft 461 kts 295°
2026-04-28 14:18 5.03482 -3.37715 36039 ft 460 kts 295°
2026-04-28 14:19 5.06146 -3.43501 36023 ft 460 kts 295°
2026-04-28 14:19 5.08825 -3.49324 36025 ft 460 kts 295°
2026-04-28 14:20 5.11500 -3.55139 36036 ft 459 kts 295°
2026-04-28 14:20 5.14177 -3.60959 36034 ft 459 kts 295°
2026-04-28 14:21 5.16855 -3.66783 36036 ft 459 kts 295°
2026-04-28 14:21 5.19530 -3.72603 36029 ft 460 kts 295°
2026-04-28 14:22 5.22208 -3.78432 36006 ft 460 kts 295°
2026-04-28 14:22 5.24888 -3.84267 35994 ft 461 kts 295°
2026-04-28 14:23 5.27570 -3.90108 35988 ft 461 kts 295°
2026-04-28 14:23 5.30241 -3.95959 35978 ft 462 kts 295°
2026-04-28 14:24 5.32890 -4.01824 36000 ft 461 kts 294°
2026-04-28 14:24 5.35537 -4.07693 36012 ft 461 kts 294°
2026-04-28 14:25 5.38187 -4.13562 36005 ft 461 kts 294°
2026-04-28 14:25 5.40837 -4.19429 36031 ft 461 kts 294°
2026-04-28 14:26 5.43485 -4.25291 36024 ft 461 kts 294°
2026-04-28 14:26 5.46132 -4.31152 36040 ft 461 kts 294°
2026-04-28 14:27 5.48775 -4.37010 36024 ft 461 kts 294°
2026-04-28 14:27 5.51416 -4.42863 36026 ft 460 kts 294°
2026-04-28 14:28 5.54053 -4.48709 36018 ft 460 kts 294°
2026-04-28 14:28 5.56693 -4.54563 36035 ft 460 kts 294°
2026-04-28 14:29 5.59330 -4.60413 36028 ft 460 kts 295°
2026-04-28 14:29 5.61965 -4.66262 36029 ft 460 kts 295°
2026-04-28 14:30 5.64601 -4.72112 36028 ft 460 kts 295°
2026-04-28 14:30 5.67222 -4.77933 36012 ft 461 kts 295°
2026-04-28 14:31 5.69862 -4.83795 36028 ft 461 kts 295°
2026-04-28 14:31 5.72504 -4.89667 36014 ft 462 kts 295°
2026-04-28 14:32 5.75149 -4.95545 36027 ft 462 kts 295°
2026-04-28 14:32 5.77791 -5.01419 36019 ft 462 kts 295°
2026-04-28 14:33 5.80432 -5.07294 36017 ft 461 kts 295°
2026-04-28 14:33 5.83068 -5.13159 36016 ft 460 kts 295°
2026-04-28 14:34 5.87010 -5.21931 36017 ft 458 kts 295°
2026-04-28 14:35 5.89627 -5.27761 36013 ft 457 kts 295°
2026-04-28 14:35 5.92239 -5.33577 36021 ft 456 kts 295°
2026-04-28 14:36 5.94846 -5.39384 36021 ft 455 kts 295°
2026-04-28 14:36 5.97444 -5.45164 36000 ft 453 kts 294°
2026-04-28 14:37 6.00030 -5.50921 36017 ft 451 kts 295°
2026-04-28 14:37 6.02605 -5.56658 36019 ft 450 kts 295°
2026-04-28 14:38 6.05173 -5.62381 36022 ft 448 kts 295°
2026-04-28 14:38 6.07717 -5.68053 36015 ft 448 kts 295°
2026-04-28 14:39 6.10293 -5.73798 35997 ft 449 kts 294°
2026-04-28 14:39 6.12846 -5.79492 36022 ft 451 kts 294°
2026-04-28 14:40 6.15429 -5.85257 36020 ft 454 kts 294°
2026-04-28 14:40 6.18027 -5.91057 36019 ft 457 kts 294°
2026-04-28 14:41 6.20644 -5.96901 36020 ft 459 kts 294°
2026-04-28 14:41 6.23270 -6.02768 36014 ft 461 kts 294°
2026-04-28 14:42 6.25904 -6.08655 36012 ft 462 kts 294°
2026-04-28 14:42 6.28540 -6.14548 36013 ft 462 kts 294°
2026-04-28 14:43 6.31173 -6.20437 36015 ft 461 kts 294°
2026-04-28 14:43 6.33808 -6.26303 36002 ft 460 kts 294°
2026-04-28 14:44 6.36439 -6.32148 36012 ft 458 kts 294°
2026-04-28 14:44 6.39060 -6.37973 36011 ft 457 kts 294°
2026-04-28 14:45 6.41656 -6.43749 36013 ft 455 kts 294°
2026-04-28 14:45 6.44258 -6.49542 36022 ft 454 kts 294°
2026-04-28 14:46 6.46852 -6.55321 36002 ft 453 kts 294°
2026-04-28 14:46 6.49437 -6.61081 35996 ft 451 kts 294°
2026-04-28 14:47 6.52011 -6.66817 36017 ft 449 kts 294°
2026-04-28 14:47 6.54577 -6.72537 36001 ft 448 kts 294°
2026-04-28 14:48 6.57138 -6.78250 36023 ft 447 kts 294°
2026-04-28 14:48 6.59695 -6.83955 36013 ft 448 kts 294°
2026-04-28 14:49 6.62251 -6.89661 36013 ft 448 kts 294°
2026-04-28 14:49 6.64811 -6.95376 36020 ft 448 kts 294°
2026-04-28 14:50 6.67376 -7.01105 36016 ft 449 kts 294°
2026-04-28 14:50 6.69944 -7.06844 36021 ft 450 kts 294°
2026-04-28 14:51 6.72516 -7.12591 36010 ft 451 kts 294°
2026-04-28 14:51 6.75090 -7.18348 36023 ft 451 kts 294°
2026-04-28 14:52 6.77654 -7.24083 36000 ft 452 kts 294°
2026-04-28 14:52 6.80233 -7.29855 36032 ft 452 kts 294°
2026-04-28 14:53 6.82812 -7.35627 36011 ft 452 kts 294°
2026-04-28 14:53 6.85385 -7.41388 36010 ft 451 kts 294°
2026-04-28 14:54 6.87951 -7.47137 36033 ft 450 kts 294°
2026-04-28 14:54 6.90513 -7.52880 36010 ft 449 kts 294°
2026-04-28 14:55 6.93068 -7.58606 36023 ft 448 kts 294°
2026-04-28 14:55 6.95617 -7.64323 35971 ft 447 kts 294°
2026-04-28 14:56 6.98165 -7.70040 35987 ft 447 kts 294°
2026-04-28 14:56 7.00709 -7.75749 35971 ft 447 kts 294°
2026-04-28 14:57 7.03239 -7.81430 35987 ft 448 kts 294°
2026-04-28 14:57 7.05788 -7.87157 35989 ft 449 kts 294°
2026-04-28 14:58 7.08342 -7.92896 35984 ft 450 kts 294°
2026-04-28 14:58 7.10467 -7.97673 35988 ft 450 kts 294°
2026-04-28 14:59 7.13032 -8.03440 35993 ft 451 kts 294°
2026-04-28 14:59 7.15593 -8.09202 35992 ft 451 kts 294°
2026-04-28 15:00 7.18571 -8.15906 35987 ft 451 kts 294°
2026-04-28 15:00 7.20710 -8.20749 35994 ft 452 kts 294°
2026-04-28 15:01 7.23222 -8.26537 36003 ft 451 kts 293°
2026-04-28 15:01 7.25728 -8.32335 36000 ft 451 kts 293°
2026-04-28 15:02 7.28234 -8.38124 35988 ft 451 kts 293°
2026-04-28 15:02 7.30726 -8.43874 35998 ft 451 kts 293°
2026-04-28 15:03 7.33234 -8.49663 36006 ft 451 kts 293°
2026-04-28 15:03 7.35745 -8.55460 36006 ft 451 kts 293°
2026-04-28 15:04 7.38254 -8.61255 36007 ft 452 kts 293°
2026-04-28 15:04 7.40767 -8.67063 35991 ft 452 kts 293°
2026-04-28 15:05 7.43280 -8.72874 36002 ft 452 kts 293°
2026-04-28 15:05 7.45794 -8.78688 36003 ft 453 kts 293°
2026-04-28 15:06 7.48312 -8.84514 36002 ft 453 kts 293°
2026-04-28 15:06 7.50827 -8.90337 35988 ft 454 kts 293°
2026-04-28 15:07 7.53328 -8.96129 36008 ft 454 kts 293°
2026-04-28 15:07 7.55850 -9.01972 36007 ft 455 kts 293°
2026-04-28 15:08 7.58376 -9.07823 36005 ft 456 kts 293°
2026-04-28 15:08 7.60914 -9.13675 36013 ft 456 kts 293°
2026-04-28 15:09 7.63455 -9.19533 36001 ft 456 kts 293°
2026-04-28 15:09 7.65992 -9.25388 36009 ft 455 kts 293°
2026-04-28 15:10 7.68524 -9.31236 36013 ft 455 kts 293°
2026-04-28 15:10 7.71051 -9.37076 36003 ft 454 kts 293°
2026-04-28 15:11 7.73577 -9.42915 36003 ft 454 kts 293°
2026-04-28 15:11 7.76078 -9.48700 36000 ft 453 kts 293°
2026-04-28 15:12 7.78593 -9.54520 35995 ft 452 kts 293°
2026-04-28 15:12 7.81106 -9.60336 36005 ft 452 kts 293°
2026-04-28 15:13 7.83613 -9.66144 36007 ft 451 kts 293°
2026-04-28 15:13 7.86119 -9.71950 36008 ft 451 kts 293°
2026-04-28 15:14 7.88658 -9.77737 36007 ft 451 kts 293°
2026-04-28 15:14 7.91232 -9.83468 36001 ft 452 kts 294°
2026-04-28 15:15 7.93820 -9.89239 35996 ft 452 kts 294°
2026-04-28 15:15 7.96396 -9.95005 36003 ft 451 kts 293°
2026-04-28 15:16 7.98972 -10.00781 35999 ft 451 kts 294°
2026-04-28 15:16 8.01544 -10.06552 36004 ft 451 kts 294°
2026-04-28 15:17 8.04114 -10.12320 36001 ft 450 kts 293°
2026-04-28 15:17 8.06681 -10.18083 35999 ft 450 kts 293°
2026-04-28 15:18 8.09247 -10.23840 35988 ft 450 kts 294°
2026-04-28 15:18 8.11816 -10.29595 35986 ft 450 kts 294°
2026-04-28 15:19 8.14384 -10.35354 35992 ft 449 kts 293°
2026-04-28 15:19 8.16947 -10.41108 35990 ft 449 kts 294°
2026-04-28 15:20 8.19506 -10.46854 35981 ft 449 kts 294°
2026-04-28 15:20 8.22066 -10.52605 35982 ft 449 kts 293°
2026-04-28 15:21 8.24624 -10.58356 35977 ft 449 kts 293°
2026-04-28 15:21 8.27166 -10.64071 35970 ft 449 kts 293°
2026-04-28 15:22 8.29726 -10.69831 35973 ft 449 kts 293°
2026-04-28 15:22 8.32286 -10.75591 35975 ft 450 kts 293°
2026-04-28 15:23 8.34846 -10.81356 35967 ft 450 kts 293°
2026-04-28 15:23 8.37409 -10.87129 35964 ft 450 kts 293°
2026-04-28 15:24 8.39963 -10.92886 35971 ft 450 kts 293°
2026-04-28 15:24 8.42523 -10.98660 35967 ft 451 kts 293°
2026-04-28 15:25 8.45086 -11.04443 35957 ft 451 kts 293°
2026-04-28 15:25 8.47579 -11.10070 35966 ft 451 kts 293°
2026-04-28 15:26 8.50102 -11.15991 35964 ft 450 kts 291°
2026-04-28 15:26 8.52412 -11.21829 35953 ft 450 kts 290°
2026-04-28 15:27 8.54727 -11.27704 35955 ft 450 kts 291°
2026-04-28 15:27 8.57057 -11.33563 35959 ft 449 kts 291°
2026-04-28 15:28 8.59397 -11.39420 35947 ft 449 kts 291°
2026-04-28 15:28 8.61735 -11.45265 35948 ft 448 kts 291°
2026-04-28 15:29 8.64070 -11.51107 35956 ft 447 kts 291°
2026-04-28 15:29 8.66397 -11.56935 35955 ft 447 kts 291°
2026-04-28 15:30 8.68718 -11.62749 35946 ft 446 kts 291°
2026-04-28 15:30 8.71037 -11.68562 35949 ft 446 kts 291°
2026-04-28 15:31 8.73354 -11.74373 35950 ft 445 kts 291°
2026-04-28 15:31 8.75667 -11.80180 35936 ft 445 kts 291°
2026-04-28 15:32 8.77984 -11.85995 35937 ft 446 kts 291°
2026-04-28 15:32 8.80277 -11.91755 35935 ft 446 kts 291°
2026-04-28 15:33 8.82593 -11.97577 35934 ft 446 kts 291°
2026-04-28 15:33 8.84912 -12.03407 35931 ft 447 kts 291°
2026-04-28 15:34 8.87231 -12.09242 35927 ft 447 kts 291°
2026-04-28 15:34 8.89553 -12.15086 35937 ft 448 kts 291°
2026-04-28 15:35 8.91874 -12.20931 35930 ft 447 kts 291°
2026-04-28 15:35 8.95347 -12.29683 35928 ft 446 kts 291°
2026-04-28 15:36 8.97652 -12.35495 35927 ft 445 kts 291°
2026-04-28 15:36 8.99951 -12.41298 35930 ft 444 kts 291°
2026-04-28 15:37 9.02228 -12.47048 35925 ft 443 kts 291°
2026-04-28 15:37 9.04146 -12.51891 35928 ft 442 kts 291°
2026-04-28 15:38 9.06819 -12.58592 35936 ft 441 kts 293°
2026-04-28 15:38 9.09785 -12.64031 35945 ft 442 kts 300°
2026-04-28 15:39 9.12962 -12.69348 35931 ft 441 kts 300°
2026-04-28 15:39 9.16099 -12.74678 35941 ft 441 kts 299°
2026-04-28 15:40 9.19204 -12.80038 35941 ft 442 kts 299°
2026-04-28 15:40 9.22303 -12.85410 35942 ft 442 kts 299°
2026-04-28 15:41 9.25406 -12.90784 35947 ft 442 kts 298°
2026-04-28 15:41 9.28503 -12.96156 35952 ft 441 kts 298°
2026-04-28 15:42 9.31584 -13.01520 35946 ft 440 kts 297°
2026-04-28 15:42 9.34017 -13.07167 35961 ft 437 kts 290°
2026-04-28 15:43 9.36231 -13.12893 35974 ft 436 kts 290°
2026-04-28 15:43 9.38488 -13.18555 35957 ft 437 kts 291°
2026-04-28 15:44 9.40423 -13.23339 35956 ft 438 kts 292°
2026-04-28 15:44 9.42802 -13.28970 35963 ft 438 kts 292°
2026-04-28 15:45 9.45227 -13.34647 35971 ft 440 kts 292°
2026-04-28 15:45 9.47640 -13.40329 35970 ft 439 kts 291°
2026-04-28 15:46 9.50039 -13.45999 35959 ft 437 kts 292°
2026-04-28 15:46 9.52436 -13.51668 35964 ft 437 kts 292°
2026-04-28 15:47 9.54692 -13.57008 35951 ft 438 kts 292°
2026-04-28 15:47 9.57871 -13.62366 35964 ft 440 kts 309°
2026-04-28 15:48 9.62436 -13.66525 35976 ft 443 kts 321°
2026-04-28 15:48 9.67381 -13.70276 35980 ft 444 kts 321°
2026-04-28 15:49 9.72325 -13.74045 35978 ft 445 kts 321°
2026-04-28 15:49 9.77252 -13.77848 35976 ft 445 kts 321°
2026-04-28 15:50 9.82173 -13.81669 35993 ft 446 kts 321°
2026-04-28 15:50 9.87097 -13.85495 35981 ft 446 kts 320°
2026-04-28 15:51 9.92027 -13.89325 35983 ft 446 kts 321°
2026-04-28 15:51 9.96952 -13.93151 35984 ft 446 kts 321°
2026-04-28 15:52 10.01833 -13.96945 35986 ft 444 kts 321°
2026-04-28 15:52 10.06735 -14.00758 35981 ft 443 kts 321°
2026-04-28 15:53 10.11604 -14.04570 35983 ft 438 kts 319°
2026-04-28 15:53 10.13957 -14.06502 35667 ft 434 kts 319°
2026-04-28 15:53 10.16266 -14.08434 35423 ft 425 kts 318°
2026-04-28 15:54 10.18534 -14.10344 34991 ft 423 kts 319°
2026-04-28 15:54 10.20788 -14.12239 34635 ft 419 kts 318°
2026-04-28 15:54 10.23030 -14.14118 34250 ft 416 kts 319°
2026-04-28 15:54 10.25256 -14.15978 33853 ft 414 kts 319°
2026-04-28 15:55 10.27474 -14.17828 33436 ft 411 kts 318°
2026-04-28 15:55 10.29676 -14.19663 33024 ft 408 kts 319°
2026-04-28 15:55 10.31865 -14.21485 32633 ft 406 kts 319°
2026-04-28 15:55 10.34040 -14.23297 32251 ft 403 kts 319°
2026-04-28 15:56 10.36197 -14.25094 31878 ft 400 kts 319°
2026-04-28 15:56 10.38347 -14.26884 31509 ft 398 kts 319°
2026-04-28 15:56 10.40486 -14.28666 31135 ft 396 kts 319°
2026-04-28 15:56 10.42609 -14.30436 30772 ft 394 kts 318°
2026-04-28 15:57 10.44727 -14.32202 30406 ft 393 kts 319°
2026-04-28 15:57 10.46834 -14.33959 30025 ft 392 kts 318°
2026-04-28 15:57 10.48910 -14.35690 29619 ft 390 kts 318°
2026-04-28 15:57 10.50997 -14.37431 29230 ft 387 kts 319°
2026-04-28 15:58 10.53074 -14.39164 28833 ft 384 kts 319°
2026-04-28 15:58 10.55131 -14.40880 28445 ft 382 kts 318°
2026-04-28 15:58 10.57177 -14.42588 28071 ft 379 kts 319°
2026-04-28 15:58 10.59208 -14.44283 27707 ft 376 kts 319°
2026-04-28 15:59 10.61225 -14.45967 27335 ft 374 kts 319°
2026-04-28 15:59 10.63226 -14.47639 26974 ft 372 kts 318°
2026-04-28 15:59 10.65218 -14.49302 26616 ft 369 kts 318°
2026-04-28 15:59 10.67199 -14.50958 26258 ft 368 kts 319°
2026-04-28 16:00 10.69169 -14.52603 25900 ft 366 kts 319°
2026-04-28 16:00 10.71141 -14.54233 25541 ft 365 kts 320°
2026-04-28 16:00 10.73140 -14.55816 25168 ft 364 kts 321°
2026-04-28 16:00 10.75148 -14.57380 24805 ft 363 kts 320°
2026-04-28 16:01 10.77148 -14.58934 24444 ft 362 kts 321°
2026-04-28 16:01 10.79147 -14.60489 24088 ft 361 kts 321°
2026-04-28 16:01 10.81139 -14.62045 23720 ft 361 kts 321°
2026-04-28 16:01 10.83125 -14.63599 23334 ft 360 kts 321°
2026-04-28 16:02 10.85107 -14.65153 22949 ft 358 kts 321°
2026-04-28 16:02 10.87078 -14.66699 22572 ft 356 kts 321°
2026-04-28 16:02 10.89035 -14.68236 22213 ft 354 kts 320°
2026-04-28 16:02 10.90953 -14.69743 21867 ft 352 kts 321°
2026-04-28 16:03 10.92884 -14.71260 21514 ft 350 kts 321°
2026-04-28 16:03 10.94805 -14.72770 21163 ft 348 kts 320°
2026-04-28 16:03 10.96714 -14.74270 20819 ft 346 kts 320°
2026-04-28 16:03 10.98615 -14.75765 20482 ft 344 kts 320°
2026-04-28 16:04 11.00505 -14.77251 20138 ft 342 kts 321°
2026-04-28 16:04 11.02384 -14.78729 19809 ft 341 kts 321°
2026-04-28 16:04 11.04260 -14.80205 19472 ft 339 kts 321°
2026-04-28 16:04 11.06123 -14.81671 19135 ft 338 kts 320°
2026-04-28 16:05 11.07982 -14.83134 18806 ft 337 kts 320°
2026-04-28 16:05 11.09839 -14.84596 18448 ft 337 kts 321°
2026-04-28 16:05 11.11693 -14.86056 18105 ft 338 kts 320°
2026-04-28 16:05 11.13591 -14.87551 17736 ft 353 kts 320°
2026-04-28 16:06 11.15571 -14.89110 17352 ft 363 kts 321°
2026-04-28 16:06 11.17387 -14.90876 16938 ft 361 kts 304°
2026-04-28 16:06 11.18766 -14.92995 16591 ft 357 kts 301°
2026-04-28 16:06 11.20118 -14.95124 16216 ft 357 kts 302°
2026-04-28 16:07 11.21469 -14.97247 15846 ft 358 kts 302°
2026-04-28 16:07 11.22826 -14.99372 15465 ft 358 kts 302°
2026-04-28 16:07 11.25560 -15.03618 14722 ft 359 kts 302°
2026-04-28 16:08 11.26915 -15.05714 14347 ft 360 kts 301°
2026-04-28 16:08 11.28295 -15.07845 13975 ft 361 kts 301°
2026-04-28 16:08 11.29679 -15.09979 13591 ft 360 kts 301°
2026-04-28 16:09 11.32418 -15.14200 12819 ft 354 kts 302°
2026-04-28 16:09 11.33764 -15.16277 12452 ft 351 kts 301°
2026-04-28 16:09 11.35109 -15.18354 12067 ft 351 kts 302°
2026-04-28 16:10 11.37817 -15.22533 11307 ft 355 kts 303°
2026-04-28 16:10 11.39175 -15.24631 10947 ft 352 kts 303°
2026-04-28 16:10 11.41802 -15.28685 10223 ft 333 kts 303°
2026-04-28 16:11 11.44266 -15.32491 9695 ft 312 kts 304°
2026-04-28 16:11 11.46633 -15.36147 9102 ft 308 kts 304°
2026-04-28 16:12 11.49002 -15.39807 8447 ft 309 kts 305°
2026-04-28 16:12 11.50185 -15.41636 8105 ft 309 kts 305°
2026-04-28 16:13 11.52543 -15.45284 7452 ft 303 kts 306°
2026-04-28 16:13 11.53686 -15.47054 7150 ft 295 kts 306°
2026-04-28 16:13 11.55903 -15.50486 6574 ft 288 kts 306°
2026-04-28 16:14 11.58079 -15.53851 5983 ft 286 kts 305°
2026-04-28 16:14 11.60236 -15.57190 5277 ft 282 kts 306°
2026-04-28 16:15 11.62396 -15.60535 4246 ft 283 kts 306°
2026-04-28 16:15 11.63477 -15.62210 3702 ft 283 kts 305°
2026-04-28 16:15 11.64559 -15.63885 3182 ft 282 kts 304°
2026-04-28 16:16 11.66698 -15.67201 2240 ft 273 kts 305°
2026-04-28 16:16 11.67712 -15.68775 2095 ft 257 kts 304°
2026-04-28 16:17 11.69981 -15.71098 2038 ft 212 kts 342°
2026-04-28 16:17 11.71350 -15.71334 2000 ft 187 kts 359°
2026-04-28 16:17 11.72543 -15.71165 2006 ft 162 kts 15°
2026-04-28 16:17 11.73571 -15.70832 2054 ft 153 kts 15°
2026-04-28 16:18 11.74561 -15.70494 2023 ft 143 kts 16°
2026-04-28 16:18 11.75499 -15.70172 2017 ft 142 kts 15°
2026-04-28 16:18 11.76433 -15.69852 2006 ft 142 kts 18°
2026-04-28 16:18 11.77365 -15.69531 1973 ft 142 kts 16°
2026-04-28 16:19 11.78304 -15.69209 1839 ft 147 kts 14°
2026-04-28 16:19 11.79272 -15.68877 1699 ft 151 kts 18°
2026-04-28 16:19 11.80270 -15.68535 1633 ft 153 kts 18°
2026-04-28 16:19 11.81288 -15.68184 1552 ft 154 kts 15°
2026-04-28 16:20 11.82305 -15.67836 1448 ft 156 kts 16°
2026-04-28 16:20 11.83346 -15.67513 1326 ft 156 kts 15°
2026-04-28 16:20 11.84385 -15.67157 1050 ft 158 kts 18°
2026-04-28 16:20 11.85405 -15.66743 755 ft 163 kts 17°
2026-04-28 16:21 11.86499 -15.66384 500 ft 161 kts 11°
2026-04-28 16:21 11.87557 -15.66058 341 ft 159 kts 16°
2026-04-28 16:21 11.88582 -15.65672 155 ft 158 kts 17°
2026-04-28 16:21 11.89574 -15.65342 121 ft 135 kts 18°
2026-04-28 16:22 11.90179 -15.65135 111 ft 54 kts 18°
2026-04-28 16:22 11.90495 -15.65029 106 ft 32 kts 19°
2026-04-28 16:22 11.90533 -15.65016 106 ft 29 kts 19°
2026-04-28 16:22 11.81761 -15.68021 1502 ft 154 kts 17°
2026-04-28 16:23 11.82161 -15.67883 1451 ft 155 kts 18°
2026-04-28 16:23 11.83292 -15.67530 1335 ft 156 kts 16°
2026-04-28 16:23 11.84356 -15.67168 1052 ft 158 kts 18°
2026-04-28 16:23 11.85395 -15.66747 758 ft 163 kts 17°
2026-04-28 16:24 11.86483 -15.66389 501 ft 161 kts 11°
2026-04-28 16:24 11.87524 -15.66070 348 ft 159 kts 16°
2026-04-28 16:24 11.88563 -15.65679 156 ft 158 kts 17°
2026-04-28 16:24 11.89542 -15.65353 123 ft 136 kts 18°
2026-04-28 16:25 11.90159 -15.65142 111 ft 59 kts 18°
2026-04-28 16:25 11.82465 -15.67786 1433 ft 157 kts 15°
2026-04-28 16:25 11.83563 -15.67445 1257 ft 157 kts 17°
2026-04-28 16:25 11.84603 -15.67071 993 ft 158 kts 17°
2026-04-28 16:26 11.85652 -15.66649 666 ft 163 kts 15°
2026-04-28 16:26 11.86731 -15.66319 474 ft 159 kts 12°
2026-04-28 16:26 11.87787 -15.65971 295 ft 159 kts 19°
2026-04-28 16:26 11.88795 -15.65599 142 ft 156 kts 16°
2026-04-28 16:27 11.89699 -15.65300 121 ft 128 kts 18°
2026-04-28 16:27 11.86745 -15.66315 473 ft 159 kts 12°
2026-04-28 16:27 11.88044 -15.65872 237 ft 159 kts 19°
2026-04-28 16:28 11.85767 -15.66608 626 ft 164 kts 16°
2026-04-28 16:28 11.87052 -15.66225 412 ft 157 kts 12°
2026-04-28 16:28 11.88474 -15.65711 165 ft 159 kts 17°
2026-04-28 16:28 11.89586 -15.65338 123 ft 134 kts 18°
2026-04-28 16:29 11.86690 -15.66330 477 ft 162 kts 14°
2026-04-28 16:29 11.87914 -15.65922 265 ft 159 kts 19°
2026-04-28 16:30 11.88751 -15.65613 145 ft 156 kts 16°
2026-04-28 16:30 11.89616 -15.65328 120 ft 133 kts 18°
2026-04-28 16:30 11.90610 -15.64989 104 ft 48 kts 18°
2026-04-28 16:30 11.90782 -15.64931 103 ft 22 kts 19°
2026-04-28 16:31 11.90827 -15.64894 102 ft 5 kts
2026-04-28 16:31 11.90841 -15.64911 102 ft 2 kts 275°
2026-04-28 16:31 11.90832 -15.64916 101 ft 1 kts 210°
2026-04-28 16:31 11.90805 -15.64929 102 ft 8 kts 204°
2026-04-28 16:32 11.90754 -15.64952 103 ft 9 kts 204°
2026-04-28 16:32 11.90641 -15.64981 104 ft 8 kts 187°
2026-04-28 16:32 11.90587 -15.64992 104 ft 8 kts 196°
2026-04-28 16:33 11.90531 -15.65011 107 ft 11 kts 199°
2026-04-28 16:33 11.90463 -15.65035 107 ft 19 kts 199°
2026-04-28 16:33 11.90240 -15.65114 110 ft 32 kts 199°
2026-04-28 16:33 11.90002 -15.65196 115 ft 38 kts 198°
2026-04-28 16:34 11.89758 -15.65279 117 ft 35 kts 199°
2026-04-28 16:34 11.89540 -15.65353 125 ft 31 kts 198°
2026-04-28 16:34 11.89343 -15.65420 127 ft 29 kts 198°
2026-04-28 16:34 11.89157 -15.65483 128 ft 27 kts 199°
2026-04-28 16:35 11.88985 -15.65542 129 ft 25 kts 199°
2026-04-28 16:35 11.88882 -15.65543 131 ft 14 kts 140°
2026-04-28 16:35 11.88850 -15.65466 132 ft 10 kts 106°
2026-04-28 16:35 11.88831 -15.65403 132 ft 8 kts 109°
2026-04-28 16:36 11.88819 -15.65366 132 ft 2 kts 109°
2026-04-28 16:36 11.88805 -15.65354 132 ft 7 kts 155°
2026-04-28 16:36 11.88751 -15.65360 133 ft 8 kts 186°
2026-04-28 16:36 11.88726 -15.65324 133 ft 3 kts 71°
2026-04-28 16:37 11.88747 -15.65321 133 ft 3 kts
2026-04-28 16:37 11.88773 -15.65319 133 ft 0 kts